Weather History for Gillette, WY

Change the Weather History Date:

Sunday, January 20, 2013

  Actual Average Record
Temperature  
Mean Temperature 24 °F 26 °F  
Max Temperature 35 °F 37 °F - ()
Min Temperature 12 °F 15 °F - ()
Degree Days  
Heating Degree Days 41 39  
Month to date heating degree days 819 785  
Since 1 July heating degree days 3659 3926  
Cooling Degree Days 0 0  
Month to date cooling degree days 0 0  
Year to date cooling degree days 0 0  
Moisture  
Dew Point 16 °F    
Average Humidity 70    
Maximum Humidity 92    
Minimum Humidity 47    
Precipitation  
Precipitation T in 0.01 in - ()
Month to date precipitation 0.15 0.21  
Year to date precipitation 0.15 0.21  
Sea Level Pressure  
Sea Level Pressure 30.34 in    
Wind  
Wind Speed 11 mph (NW)    
Max Wind Speed 23 mph    
Max Gust Speed 28 mph    
Visibility 9 miles    
Events Snow    
T = Trace of Precipitation, MM = Missing Value Source: NWS Daily Summary

Daily Weather History Graph

Daily Weather History Graph

Search for Another Location

Airport:

Trip Planner

Search our weather history database for the weather conditions in past years. The results will help you decide how hot, cold, wet, or windy it might be!

Date:

Astronomy

Jan. 20, 2013 Rise Set
Actual Time 7:31 AM MST 4:55 PM MST
Civil Twilight 6:59 AM MST 5:27 PM MST
Nautical Twilight 6:23 AM MST 6:03 PM MST
Astronomical Twilight 5:49 AM MST 6:37 PM MST
Moon 11:59 AM MST (1/20) 2:04 AM MST (1/20)
Length of Visible Light 10h 28m
Length of Day
9h 24m
Waxing Gibbous, 67% of the Moon is Illuminated
Jan 20
Waxing Gibbous
Jan 26
Full
Feb 3
Last Quarter
Feb 10
New
Feb 17
First Quarter

Hourly Weather History & Observations

Time (MST) Temp. Windchill Dew Point Humidity Pressure Visibility Wind Dir Wind Speed Gust Speed Precip Events Conditions
12:53 AM 32.0 °F 20.8 °F 15.1 °F 50% 30.09 in 10.0 mi SW 17.3 mph - N/A   Clear
1:53 AM 30.9 °F 21.2 °F 15.1 °F 52% 30.11 in 10.0 mi WSW 12.7 mph - N/A   Clear
2:53 AM 30.9 °F 21.7 °F 14.0 °F 50% 30.15 in 10.0 mi West 11.5 mph - N/A   Clear
3:53 AM 34.0 °F 23.4 °F 15.1 °F 46% 30.19 in 10.0 mi WNW 17.3 mph - N/A   Clear
4:53 AM 30.0 °F 18.7 °F 17.1 °F 59% 30.26 in 10.0 mi NW 16.1 mph 23.0 mph N/A   Mostly Cloudy
5:53 AM 27.0 °F 13.5 °F 19.9 °F 75% 30.36 in 10.0 mi NW 19.6 mph 27.6 mph N/A   Overcast
6:09 AM 26.6 °F 13.8 °F 19.4 °F 74% 30.25 in 10.0 mi NNW 17.3 mph - N/A   Overcast
6:53 AM 24.1 °F 11.0 °F 19.9 °F 84% 30.42 in 10.0 mi NW 16.1 mph 23.0 mph N/A   Overcast
7:25 AM 21.2 °F 6.8 °F 19.4 °F 93% 30.29 in 5.0 mi NNW 17.3 mph - 0.00 in Snow Light Snow
7:53 AM 21.9 °F 6.9 °F 19.0 °F 89% 30.44 in 4.0 mi NW 19.6 mph - 0.00 in Snow Light Snow
8:17 AM 21.2 °F 7.8 °F 17.6 °F 86% 30.32 in 10.0 mi NNW 15.0 mph - 0.00 in   Overcast
8:32 AM 21.2 °F 8.9 °F 17.6 °F 86% 30.32 in 9.0 mi NNW 12.7 mph - 0.00 in   Overcast
8:41 AM 21.2 °F 10.1 °F 19.4 °F 93% 30.33 in 7.0 mi NNW 10.4 mph - 0.00 in   Overcast
8:50 AM 21.2 °F 6.4 °F 17.6 °F 86% 30.33 in 7.0 mi NNW 18.4 mph - 0.00 in   Overcast
8:53 AM 21.0 °F 6.2 °F 17.1 °F 85% 30.47 in 6.0 mi NNW 18.4 mph - 0.00 in   Overcast
9:53 AM 21.0 °F 7.6 °F 16.0 °F 81% 30.46 in 10.0 mi North 15.0 mph - 0.00 in   Overcast
10:28 AM 21.2 °F 7.8 °F 15.8 °F 80% 30.34 in 10.0 mi North 15.0 mph - N/A   Overcast
10:53 AM 21.0 °F 8.6 °F 15.1 °F 78% 30.48 in 10.0 mi NNW 12.7 mph - N/A   Overcast
11:53 AM 21.9 °F 12.5 °F 15.1 °F 75% 30.43 in 10.0 mi NW 8.1 mph - N/A   Overcast
12:53 PM 21.9 °F 11.7 °F 15.1 °F 75% 30.41 in 10.0 mi NNW 9.2 mph - N/A   Overcast
1:53 PM 21.9 °F 10.4 °F 14.0 °F 72% 30.40 in 10.0 mi NW 11.5 mph - N/A   Overcast
2:53 PM 21.9 °F 13.4 °F 15.1 °F 75% 30.38 in 10.0 mi NNW 6.9 mph - N/A   Overcast
3:53 PM 21.0 °F 11.4 °F 15.1 °F 78% 30.37 in 10.0 mi NW 8.1 mph - N/A   Overcast
4:53 PM 19.9 °F 13.4 °F 15.1 °F 81% 30.38 in 10.0 mi NNW 4.6 mph - N/A   Overcast
5:33 PM 17.6 °F 8.2 °F 12.2 °F 79% 30.25 in 10.0 mi WNW 6.9 mph - N/A   Scattered Clouds
5:53 PM 17.1 °F 7.6 °F 12.9 °F 84% 30.40 in 10.0 mi WNW 6.9 mph - N/A   Clear
6:53 PM 15.1 °F 5.2 °F 12.0 °F 88% 30.42 in 10.0 mi NW 6.9 mph - N/A   Clear
7:18 PM 15.8 °F 4.2 °F 12.2 °F 86% 30.25 in 10.0 mi WNW 9.2 mph - N/A   Mostly Cloudy
7:53 PM 17.1 °F 8.7 °F 14.0 °F 88% 30.41 in 10.0 mi West 5.8 mph - N/A   Overcast
8:53 PM 19.0 °F 10.0 °F 14.0 °F 81% 30.41 in 10.0 mi WNW 6.9 mph - N/A   Overcast
9:53 PM 18.0 °F 9.8 °F 14.0 °F 84% 30.40 in 10.0 mi WNW 5.8 mph - N/A   Overcast
10:53 PM 16.0 °F 6.3 °F 14.0 °F 92% 30.41 in 10.0 mi North 6.9 mph - N/A   Overcast
11:53 PM 15.1 °F - 12.9 °F 91% 30.38 in 10.0 mi Calm Calm - N/A   Overcast